Weather History for KDFI - February, 2012

Change the Weather History Date:

Thursday, February 16, 2012

  Actual Average Record
Temperature  
Mean Temperature 38 °F -  
Max Temperature 45 °F 35 °F 68 °F (1954)
Min Temperature 28 °F 18 °F -7 °F (1963)
Degree Days  
Heating Degree Days 28    
Moisture  
Dew Point 36 °F    
Average Humidity 87    
Maximum Humidity 100    
Minimum Humidity 65    
Precipitation  
Precipitation 0.06 in - - ()
Sea Level Pressure  
Sea Level Pressure 30.01 in    
Wind  
Wind Speed 3 mph (SW)    
Max Wind Speed 8 mph    
Max Gust Speed 17 mph    
Visibility 5 miles    
Events Fog , Rain    
Averages and records for this station are not official NWS values.
T = Trace of Precipitation, MM = Missing Value Source: NWS Daily Summary

Daily Weather History Graph

Daily Weather History Graph

Search for Another Location

Airport or City:

Trip Planner

Search our weather history database for the weather conditions in past years. The results will help you decide how hot, cold, wet, or windy it might be!

Date:

Astronomy

Feb. 16, 2012 Rise Set
Actual Time 7:31 AM EST 6:12 PM EST
Civil Twilight 7:03 AM EST 6:40 PM EST
Nautical Twilight 6:31 AM EST 7:12 PM EST
Astronomical Twilight 5:59 AM EST 7:45 PM EST
Moon 3:29 AM EST (2/16) 1:00 PM EST (2/16)
Length of Visible Light 11h 36m
Length of Day
10h 40m
Waning Crescent, 28% of the Moon is Illuminated
Feb 16
Waning Crescent
Feb 21
New
Feb 29
First Quarter
Mar 8
Full
Mar 14
Last Quarter

Hourly Weather History & Observations

Time (EST) Temp. Windchill Dew Point Humidity Pressure Visibility Wind Dir Wind Speed Gust Speed Precip Events Conditions
12:36 AM 41.0 °F - 37.4 °F 87% 30.03 in 5.0 mi Calm Calm - 0.01 in Rain Light Rain
12:53 AM 39.9 °F 37.8 °F 37.0 °F 89% 30.05 in 5.0 mi SSW 3.5 mph - 0.01 in Rain Light Rain
1:53 AM 39.9 °F 37.8 °F 37.9 °F 93% 30.03 in 5.0 mi South 3.5 mph - 0.01 in Rain Light Rain
2:53 AM 39.9 °F - 37.9 °F 93% 30.01 in 5.0 mi Calm Calm - 0.00 in   Overcast
3:42 AM 41.0 °F 37.1 °F 37.4 °F 87% 29.97 in 7.0 mi South 5.8 mph - 0.00 in Rain Light Rain
3:53 AM 41.0 °F 37.1 °F 37.9 °F 89% 29.99 in 7.0 mi South 5.8 mph - 0.00 in Rain Light Rain
4:38 AM 39.2 °F 37.0 °F 37.4 °F 93% 29.97 in 4.0 mi SSW 3.5 mph - 0.03 in Rain Light Rain
4:53 AM 39.9 °F 37.8 °F 37.9 °F 93% 29.98 in 4.0 mi South 3.5 mph - 0.03 in Rain Light Rain
5:28 AM 39.2 °F - 37.4 °F 93% 29.96 in 2.5 mi Calm Calm - 0.00 in Rain Light Rain
5:37 AM 39.2 °F - 37.4 °F 93% 29.96 in 2.0 mi Calm Calm - 0.00 in Rain Light Rain
5:51 AM 39.2 °F - 37.4 °F 93% 29.96 in 2.5 mi Calm Calm - 0.00 in Rain Light Rain
5:52 AM 39.9 °F - 37.9 °F 93% 29.98 in 2.5 mi Calm Calm - 0.00 in Rain Light Rain
6:13 AM 39.2 °F - 37.4 °F 93% 29.95 in 2.0 mi Calm Calm - 0.00 in Rain Light Rain
6:34 AM 39.2 °F - 37.4 °F 93% 29.95 in 1.5 mi Calm Calm - 0.01 in Rain Light Rain
6:53 AM 39.9 °F - 37.9 °F 93% 29.96 in 1.8 mi Calm Calm - 0.01 in Rain Light Rain
7:51 AM 39.2 °F - 39.2 °F 100% 29.94 in 0.8 mi Calm Calm - N/A   Overcast
7:52 AM 39.9 °F - 39.0 °F 97% 29.96 in 0.8 mi Calm Calm - N/A   Overcast
8:53 AM 39.9 °F 37.8 °F 39.0 °F 97% 29.97 in 0.5 mi SSW 3.5 mph - N/A Fog Fog
9:53 AM 42.1 °F 40.2 °F 39.9 °F 92% 29.97 in 1.0 mi WSW 3.5 mph - N/A   Overcast
10:53 AM 43.0 °F 40.3 °F 41.0 °F 93% 29.97 in 2.5 mi Variable 4.6 mph - N/A   Overcast
11:12 AM 42.8 °F 39.3 °F 41.0 °F 93% 29.95 in 3.0 mi SW 5.8 mph - N/A   Overcast
11:53 AM 44.1 °F 40.8 °F 41.0 °F 89% 29.99 in 5.0 mi Variable 5.8 mph - N/A   Overcast
12:53 PM 45.0 °F 42.6 °F 41.0 °F 86% 29.99 in 9.0 mi Variable 4.6 mph - N/A   Overcast
1:53 PM 44.1 °F 39.5 °F 39.0 °F 82% 29.99 in 7.0 mi West 8.1 mph - N/A   Overcast
2:53 PM 42.1 °F 37.1 °F 37.0 °F 82% 30.01 in 9.0 mi West 8.1 mph - N/A   Overcast
3:18 PM 42.8 °F 38.0 °F 35.6 °F 76% 30.00 in 10.0 mi West 8.1 mph - N/A   Overcast
4:50 PM 44.6 °F 40.7 °F 33.8 °F 66% 30.02 in 8.0 mi Variable 6.9 mph - N/A   Overcast
4:53 PM 44.1 °F 41.5 °F 33.1 °F 65% 30.04 in 8.0 mi Variable 4.6 mph - N/A   Overcast
6:53 PM 41.0 °F 38.0 °F 30.9 °F 67% 30.10 in 9.0 mi Variable 4.6 mph 17.3 mph N/A   Overcast
7:53 PM 37.9 °F - 30.9 °F 76% 30.10 in 7.0 mi Calm Calm - N/A   Clear
8:53 PM 37.9 °F 35.5 °F 30.9 °F 76% 30.12 in 6.0 mi WNW 3.5 mph - N/A   Haze
9:53 PM 36.0 °F - 30.0 °F 79% 30.12 in 7.0 mi Calm Calm - N/A   Clear
10:53 PM 30.0 °F 26.5 °F 27.0 °F 88% 30.13 in 3.0 mi SSW 3.5 mph - N/A   Clear
11:53 PM 28.9 °F 23.9 °F 26.1 °F 89% 30.14 in 4.0 mi SSW 4.6 mph - N/A   Clear